QTR71Y HTDA-OTHH

Flight info

Callsign QTR71Y
Flight time N/A
Altitude 39000
Route TIDUR1D UVUKO UL431 MOV UN301 ALEMU/N0488F380 T129 GETOL/N0487F390 UM308 KONET UG650 RASKA/N0484F400 T513 EGMEG/N0480F390 T513 JDW T532 KODIS Y214 RAPMA DCT LAEEB
Aircraft B789/H-SDE1E2E3FGHIJ2J3J4J5M1RWXY/LB1D1

Departure

Time 2026-05-09 08:04
Airport Julius Nyerere International Airport (HTDA)

Arrival

Time N/A
Airport Hamad International Airport (OTHH)
Time Latitude Longitude Altitude Speed Heading
2026-05-09 07:40 -6.86427 39.21190 182 ft 0 kts 315°
2026-05-09 07:50 -6.86427 39.21191 182 ft 0 kts 315°
2026-05-09 07:54 -6.86438 39.21201 203 ft 4 kts 315°
2026-05-09 07:54 -6.86457 39.21221 196 ft 4 kts 315°
2026-05-09 07:54 -6.86474 39.21237 200 ft 4 kts 337°
2026-05-09 07:54 -6.86496 39.21237 202 ft 4 kts 39°
2026-05-09 07:55 -6.86513 39.21220 202 ft 1 kts 45°
2026-05-09 07:55 -6.86517 39.21216 202 ft 0 kts 45°
2026-05-09 07:59 -6.86516 39.21217 202 ft 1 kts 46°
2026-05-09 07:59 -6.86505 39.21229 202 ft 3 kts 46°
2026-05-09 07:59 -6.86484 39.21250 202 ft 5 kts 45°
2026-05-09 07:59 -6.86453 39.21281 193 ft 7 kts 45°
2026-05-09 08:00 -6.86413 39.21321 193 ft 8 kts 45°
2026-05-09 08:00 -6.86403 39.21338 192 ft 0 kts 79°
2026-05-09 08:00 -6.86404 39.21344 195 ft 2 kts 96°
2026-05-09 08:00 -6.86415 39.21362 201 ft 5 kts 135°
2026-05-09 08:01 -6.86425 39.21395 190 ft 6 kts 85°
2026-05-09 08:01 -6.86400 39.21436 192 ft 8 kts 46°
2026-05-09 08:01 -6.86360 39.21480 183 ft 9 kts 49°
2026-05-09 08:01 -6.86324 39.21547 181 ft 12 kts 75°
2026-05-09 08:02 -6.86330 39.21632 179 ft 13 kts 115°
2026-05-09 08:02 -6.86390 39.21665 178 ft 8 kts 188°
2026-05-09 08:02 -6.86426 39.21644 179 ft 4 kts 220°
2026-05-09 08:02 -6.86441 39.21629 180 ft 2 kts 225°
2026-05-09 08:03 -6.86448 39.21621 180 ft 1 kts 225°
2026-05-09 08:03 -6.86557 39.21511 181 ft 50 kts 225°
2026-05-09 08:03 -6.86954 39.21117 181 ft 109 kts 225°
2026-05-09 08:04 -6.87624 39.20449 200 ft 159 kts 224°
2026-05-09 08:04 -6.88421 39.19614 587 ft 170 kts 226°
2026-05-09 08:04 -6.89369 39.18677 763 ft 210 kts 220°
2026-05-09 08:04 -6.90433 39.17579 1413 ft 222 kts 223°
2026-05-09 08:05 -6.91523 39.16447 2148 ft 237 kts 223°
2026-05-09 08:05 -6.92754 39.15193 2610 ft 261 kts 223°
2026-05-09 08:05 -6.94059 39.13958 3536 ft 260 kts 210°
2026-05-09 08:05 -6.95751 39.13385 4386 ft 257 kts 186°
2026-05-09 08:06 -6.97519 39.13556 5200 ft 258 kts 160°
2026-05-09 08:06 -6.99064 39.14465 6044 ft 259 kts 135°
2026-05-09 08:06 -7.00079 39.15958 6816 ft 265 kts 110°
2026-05-09 08:06 -7.00454 39.17786 7588 ft 270 kts 99°
2026-05-09 08:07 -7.00705 39.19706 8032 ft 283 kts 98°
2026-05-09 08:07 -7.00928 39.21668 8489 ft 276 kts 98°
2026-05-09 08:07 -7.01160 39.23553 9370 ft 278 kts 98°
2026-05-09 08:07 -7.01417 39.25530 10116 ft 283 kts 98°
2026-05-09 08:08 -7.01678 39.27556 10397 ft 306 kts 98°
2026-05-09 08:08 -7.01960 39.29779 10474 ft 333 kts 98°
2026-05-09 08:08 -7.02107 39.32126 10995 ft 340 kts 84°
2026-05-09 08:08 -7.01493 39.34403 11636 ft 347 kts 65°
2026-05-09 08:09 -7.00106 39.36431 12127 ft 359 kts 46°
2026-05-09 08:09 -6.98327 39.38176 12866 ft 360 kts 46°
2026-05-09 08:09 -6.96533 39.39961 13541 ft 364 kts 47°
2026-05-09 08:09 -6.94735 39.41768 14149 ft 368 kts 47°
2026-05-09 08:10 -6.92912 39.43596 14716 ft 372 kts 47°
2026-05-09 08:10 -6.91065 39.45438 15278 ft 376 kts 46°
2026-05-09 08:10 -6.89193 39.47308 15826 ft 380 kts 47°
2026-05-09 08:10 -6.87261 39.49139 16317 ft 386 kts 38°
2026-05-09 08:11 -6.84868 39.50412 16846 ft 393 kts 19°
2026-05-09 08:11 -6.82166 39.50893 17347 ft 400 kts
2026-05-09 08:11 -6.79364 39.50870 17828 ft 404 kts
2026-05-09 08:11 -6.76548 39.50804 18303 ft 408 kts 359°
2026-05-09 08:12 -6.70839 39.50685 19180 ft 413 kts
2026-05-09 08:12 -6.67933 39.50643 19617 ft 416 kts 360°
2026-05-09 08:12 -6.65033 39.50589 20076 ft 418 kts 360°
2026-05-09 08:13 -6.62122 39.50531 20494 ft 421 kts 360°
2026-05-09 08:13 -6.59181 39.50477 20910 ft 423 kts 360°
2026-05-09 08:13 -6.56229 39.50426 21324 ft 426 kts 360°
2026-05-09 08:13 -6.53253 39.50372 21693 ft 429 kts 360°
2026-05-09 08:14 -6.50272 39.50317 22174 ft 429 kts 359°
2026-05-09 08:14 -6.47268 39.50262 22482 ft 434 kts 359°
2026-05-09 08:14 -6.44243 39.50207 22905 ft 435 kts 359°
2026-05-09 08:14 -6.41251 39.50153 23283 ft 437 kts 359°
2026-05-09 08:15 -6.38187 39.50098 23569 ft 441 kts 359°
2026-05-09 08:15 -6.35087 39.50041 23954 ft 441 kts 359°
2026-05-09 08:15 -6.32042 39.49985 24174 ft 445 kts 360°
2026-05-09 08:15 -6.28914 39.49929 24519 ft 444 kts 359°
2026-05-09 08:16 -6.25825 39.49873 24797 ft 447 kts 360°
2026-05-09 08:16 -6.22744 39.49817 25068 ft 448 kts 359°
2026-05-09 08:16 -6.19631 39.49760 25420 ft 448 kts 359°
2026-05-09 08:16 -6.16486 39.49703 25593 ft 453 kts 359°
2026-05-09 08:17 -6.13355 39.49646 25982 ft 452 kts 359°
2026-05-09 08:17 -6.10192 39.49588 26222 ft 455 kts 360°
2026-05-09 08:17 -6.07024 39.49531 26524 ft 456 kts 359°
2026-05-09 08:17 -6.03842 39.49473 26840 ft 458 kts 359°
2026-05-09 08:18 -6.00641 39.49442 27081 ft 460 kts
2026-05-09 08:18 -5.97457 39.49494 27407 ft 460 kts
2026-05-09 08:18 -5.94237 39.49469 27612 ft 464 kts
2026-05-09 08:18 -5.91007 39.49460 27990 ft 464 kts
2026-05-09 08:19 -5.87783 39.49495 28248 ft 466 kts
2026-05-09 08:19 -5.84531 39.49529 28556 ft 468 kts
2026-05-09 08:19 -5.81276 39.49537 28843 ft 469 kts
2026-05-09 08:19 -5.78002 39.49543 29191 ft 472 kts
2026-05-09 08:20 -5.74711 39.49562 29591 ft 473 kts
2026-05-09 08:20 -5.71398 39.49585 29873 ft 477 kts
2026-05-09 08:20 -5.68079 39.49602 30258 ft 478 kts
2026-05-09 08:20 -5.64746 39.49614 30518 ft 482 kts
2026-05-09 08:21 -5.62471 39.49626 30716 ft 483 kts
2026-05-09 08:21 -5.58003 39.49650 31067 ft 486 kts
2026-05-09 08:21 -5.54616 39.49668 31339 ft 487 kts
2026-05-09 08:21 -5.51224 39.49684 31593 ft 489 kts
2026-05-09 08:22 -5.47796 39.49701 31845 ft 491 kts
2026-05-09 08:22 -5.44373 39.49718 32103 ft 493 kts
2026-05-09 08:22 -5.42100 39.49730 32241 ft 495 kts
2026-05-09 08:22 -5.38653 39.49748 32493 ft 496 kts
2026-05-09 08:23 -5.35200 39.49764 32714 ft 498 kts
2026-05-09 08:23 -5.31720 39.49782 32940 ft 500 kts
2026-05-09 08:23 -5.28248 39.49799 33163 ft 501 kts
2026-05-09 08:23 -5.24753 39.49817 33343 ft 503 kts
2026-05-09 08:24 -5.21242 39.49835 33561 ft 505 kts
2026-05-09 08:24 -5.17731 39.49852 33759 ft 506 kts
2026-05-09 08:24 -5.14199 39.49870 33950 ft 508 kts
2026-05-09 08:24 -5.10664 39.49888 34156 ft 509 kts
2026-05-09 08:25 -5.07117 39.49905 34425 ft 507 kts
2026-05-09 08:25 -5.03595 39.49923 34681 ft 506 kts
2026-05-09 08:25 -5.00080 39.49941 34955 ft 505 kts
2026-05-09 08:25 -4.96552 39.49959 35178 ft 505 kts
2026-05-09 08:26 -4.93045 39.49976 35436 ft 504 kts
2026-05-09 08:26 -4.89543 39.49993 35701 ft 503 kts
2026-05-09 08:26 -4.86042 39.50012 35955 ft 502 kts
2026-05-09 08:26 -4.82547 39.50029 36231 ft 501 kts
2026-05-09 08:27 -4.79081 39.50047 36460 ft 500 kts
2026-05-09 08:27 -4.75605 39.50064 36724 ft 499 kts
2026-05-09 08:27 -4.72140 39.50081 36960 ft 498 kts
2026-05-09 08:27 -4.68753 39.50359 37210 ft 493 kts 13°
2026-05-09 08:28 -4.65376 39.51000 37352 ft 494 kts 12°
2026-05-09 08:28 -4.61966 39.51650 37602 ft 493 kts 12°
2026-05-09 08:28 -4.58602 39.52284 37831 ft 492 kts 12°
2026-05-09 08:28 -4.55283 39.52905 38060 ft 491 kts 12°
2026-05-09 08:29 -4.51890 39.53542 38289 ft 490 kts 12°
2026-05-09 08:29 -4.48583 39.54167 38495 ft 489 kts 12°
2026-05-09 08:29 -4.45245 39.54797 38709 ft 488 kts 12°
2026-05-09 08:29 -4.41914 39.55422 38852 ft 488 kts 12°
2026-05-09 08:30 -4.38577 39.56050 38984 ft 488 kts 12°
2026-05-09 08:30 -4.35240 39.56679 38980 ft 490 kts 12°
2026-05-09 08:30 -4.28541 39.57939 38980 ft 487 kts 12°
2026-05-09 08:31 -4.21871 39.59194 38980 ft 488 kts 12°
2026-05-09 08:31 -4.15196 39.60449 38986 ft 488 kts 12°
2026-05-09 08:32 -4.08636 39.61683 38989 ft 487 kts 12°
2026-05-09 08:33 -3.98635 39.63563 38990 ft 488 kts 12°
2026-05-09 08:33 -3.91922 39.64505 38999 ft 489 kts
2026-05-09 08:34 -3.85135 39.65000 38990 ft 489 kts
2026-05-09 08:34 -3.78355 39.65519 38987 ft 489 kts
2026-05-09 08:35 -3.71570 39.66024 38984 ft 490 kts
2026-05-09 08:35 -3.64773 39.66537 38982 ft 490 kts
2026-05-09 08:36 -3.57966 39.67049 38980 ft 489 kts
2026-05-09 08:36 -3.51186 39.67559 38976 ft 489 kts
2026-05-09 08:37 -3.44387 39.68070 38975 ft 490 kts
2026-05-09 08:37 -3.37589 39.68581 38975 ft 490 kts
2026-05-09 08:38 -3.30798 39.69091 38979 ft 490 kts
2026-05-09 08:38 -3.24003 39.69602 38975 ft 490 kts
2026-05-09 08:39 -3.17211 39.70112 38976 ft 490 kts
2026-05-09 08:39 -3.10411 39.70623 38977 ft 490 kts
2026-05-09 08:40 -3.03613 39.71134 38981 ft 490 kts
2026-05-09 08:40 -2.96815 39.71644 38980 ft 490 kts
2026-05-09 08:41 -2.90059 39.72151 38977 ft 490 kts
2026-05-09 08:41 -2.83251 39.72663 38977 ft 490 kts
2026-05-09 08:42 -2.76450 39.73173 38972 ft 491 kts
2026-05-09 08:42 -2.69600 39.73687 38972 ft 491 kts
2026-05-09 08:43 -2.62833 39.74195 38973 ft 491 kts
2026-05-09 08:43 -2.56013 39.74679 38970 ft 492 kts
2026-05-09 08:44 -2.49144 39.75149 38976 ft 491 kts
2026-05-09 08:44 -2.42365 39.75628 38978 ft 491 kts
2026-05-09 08:45 -2.35549 39.76098 38969 ft 491 kts
2026-05-09 08:45 -2.28722 39.76576 38967 ft 492 kts
2026-05-09 08:46 -2.21887 39.77051 38968 ft 492 kts
2026-05-09 08:46 -2.15055 39.77527 38971 ft 492 kts
2026-05-09 08:47 -2.08192 39.78005 38966 ft 492 kts
2026-05-09 08:47 -2.01399 39.78478 38970 ft 494 kts
2026-05-09 08:48 -1.94538 39.78955 38966 ft 494 kts
2026-05-09 08:48 -1.87685 39.79432 38965 ft 493 kts
2026-05-09 08:49 -1.80838 39.79909 38971 ft 494 kts
2026-05-09 08:49 -1.74002 39.80375 38972 ft 494 kts
2026-05-09 08:50 -1.67115 39.80815 38971 ft 495 kts
2026-05-09 08:50 -1.60391 39.81263 38971 ft 494 kts
2026-05-09 08:51 -1.53510 39.81710 38973 ft 494 kts